[[{"header":{"parameterUnit":"m.s-1","parameterCategory":1,"la1":30.2991,"la2":30.254,"lo1":-89.0895,"lo2":-89.0444,"dy":0.0017,"dx":0.0017,"nx":28,"ny":28,"refTime":"2024-04-03T21:00:00:Z","depth":0,"parameterNumber":2,"parameterNumberName":"U-component_of_WINDS"},"data":[0,0,0,0,0,0,0,0,0,0,0,0,0,0,0,0,0,0,0,0,0,0,0,0,0,0,0,0,0,0,0,0,0,0,0,0,0,0,0,0,0,0,0,0,0,0,0,0,0,0,0,0,0,0,0,0,0,0,4.1826,4.1827,0,4.1908,4.1909,4.191,4.1911,4.191,4.1909,4.1908,4.199,4.1993,4.1996,0,0,0,0,0,0,0,0,0,0,0,0,0,4.1672,4.1675,4.1826,4.1827,4.1828,4.1908,4.1909,4.191,4.1911,4.191,4.1908,4.1907,4.1989,4.1993,4.1997,0,0,0,0,0,0,0,0,0,0,0,0,0,4.1745,4.1675,4.1826,4.1838,4.184,4.1907,4.1909,4.191,4.1911,4.191,4.1908,4.1907,4.1988,4.1993,4.1997,4.2057,0,0,4.2012,4.2014,0,0,0,0,0,0,0,0,4.174,4.175,4.1836,4.1838,4.184,4.1898,4.1885,4.1959,4.1912,4.1884,4.1908,4.1906,4.1961,4.1968,4.1986,4.2061,4.2065,4.2012,4.2015,4.2017,4.2018,0,0,0,0,0,0,0,4.1735,4.1747,4.1858,4.1837,4.184,4.184,4.1849,4.1899,4.193,4.1887,4.1887,4.1897,4.1962,4.1982,4.1988,4.2066,4.2012,4.2016,4.2019,4.2021,4.2196,4.2197,0,0,0,0,0,0,4.1728,4.1742,4.1856,4.1861,4.1785,4.1844,4.1854,4.1881,4.193,4.1935,4.1898,4.1896,4.1974,4.1983,4.1991,4.2065,4.2017,4.2021,4.2024,4.2194,4.2196,4.2198,0,0,0,0,0,0,4.1725,4.1738,4.1853,4.1802,4.1816,4.1848,4.1879,4.1883,4.1903,4.1938,4.1944,4.1912,4.1973,4.1984,4.2041,4.2068,4.2024,4.2028,4.2192,4.2194,4.2197,4.2213,0,0,0,0,0,0,4.172,4.1737,4.176,4.1802,4.1819,4.1901,4.188,4.1886,4.1911,4.191,4.1953,4.1959,4.1973,4.2034,4.2046,4.2074,4.2032,4.2189,4.2193,4.2196,4.2211,4.2216,4.2221,0,0,0,0,0,4.1715,4.1761,4.1761,4.1774,4.1849,4.1903,4.1912,4.1928,4.1913,4.1937,4.196,4.1958,4.2063,4.204,4.2053,4.2083,4.2188,4.2192,4.2196,4.2208,4.2215,4.2221,0,0,0,0,0,0,4.1719,4.1766,4.1767,4.1828,4.1862,4.1903,4.1933,4.1935,4.1972,4.197,4.1987,4.1997,4.2054,4.2074,4.2047,4.2144,4.2124,4.2131,4.2129,4.2136,4.2141,4.2135,4.2036,0,0,0,0,0,4.1728,4.1768,4.1807,4.1857,4.1874,4.1901,4.1925,4.1934,4.1969,4.1983,4.201,4.2044,4.2085,4.2111,4.2151,4.2214,4.2224,4.2241,4.2246,4.225,4.2256,4.2292,4.23,4.2211,4.2211,4.2211,0,0,4.1745,4.1776,4.18,4.1859,4.1886,4.1927,4.1912,4.1956,4.1987,4.199,4.2045,4.2066,4.2105,4.2166,4.2194,4.2184,4.2283,4.2256,4.2259,4.2262,4.2297,4.2305,4.2313,4.2214,4.2213,4.2213,0,0,4.1797,4.1825,4.187,4.1898,4.1939,4.1957,4.1968,4.2009,4.2024,4.208,4.2083,4.212,4.219,4.2218,4.2242,4.2307,4.2307,4.232,4.2347,4.2382,4.2389,4.2395,4.2419,4.2427,4.2325,4.2325,4.2325,0,4.1813,4.1876,4.1893,4.1938,4.1964,4.1969,4.2015,4.2041,4.2093,4.2111,4.21,4.2189,4.2216,4.2284,4.23,4.2319,4.2332,4.2314,4.2386,4.2393,4.2399,4.2422,4.2431,4.2327,4.2326,4.2326,4.2326,0,4.1894,4.1938,4.197,4.2021,4.205,4.2096,4.2119,4.2148,4.2155,4.2174,4.2232,4.2264,4.2311,4.2328,4.2335,4.2397,4.239,4.2383,4.2363,4.2409,4.243,4.2439,4.2328,4.2328,4.2328,4.2327,0,0,4.1951,4.2012,4.2023,4.2047,4.2094,4.2128,4.2174,4.222,4.2244,4.2281,4.232,4.238,4.2374,4.2401,4.2411,4.2442,4.2492,4.2431,4.2432,4.2441,4.2563,4.2568,4.2578,4.2493,4.2494,4.2496,4.256,0,4.2009,4.2091,4.2108,4.2179,4.222,4.2226,4.2266,4.2299,4.2319,4.2357,4.2378,4.242,4.2409,4.2425,4.2456,4.2479,4.2517,4.2475,4.2529,4.2531,4.2519,4.2589,4.2595,4.2654,4.2569,4.257,4.2571,0,4.2087,4.2126,4.2201,4.2244,4.2262,4.2297,4.2342,4.2378,4.2416,4.2428,4.2459,4.2467,4.2515,4.2494,4.2561,4.2532,4.2556,4.2571,4.2573,4.2579,4.2553,4.2597,4.2673,4.2681,4.2585,4.2583,4.2583,0,4.2121,4.2192,4.2247,4.2267,4.2318,4.2343,4.2366,4.2402,4.243,4.2469,4.2487,4.2531,4.2555,4.2589,4.2609,4.2591,4.2675,4.2654,4.2686,4.2686,4.2703,4.2702,4.2784,4.2719,4.2718,4.2718,4.2718,0,4.2184,4.2229,4.2263,4.2296,4.2348,4.2368,4.2419,4.2441,4.2474,4.2512,4.252,4.2556,4.258,4.2619,4.2635,4.2689,4.2699,4.2711,4.2714,4.271,4.2708,4.2725,4.2721,4.2721,4.272,4.272,4.2719,0,4.223,4.2254,4.2314,4.2358,4.2371,4.2407,4.2445,4.2478,4.2498,4.2546,4.2559,4.259,4.2637,4.266,4.2718,4.2729,4.2789,4.2791,4.2777,4.2778,4.2809,4.2805,4.2904,4.2918,4.2844,4.2844,4.2845,0,4.2268,4.2304,4.2352,4.2379,4.2402,4.2444,4.2472,4.2493,4.2523,4.257,4.2597,4.2645,4.2683,4.2758,4.2786,4.2831,4.2833,4.2864,4.2839,4.2834,4.2833,4.2831,4.2835,4.2868,4.2869,4.287,4.287,0,4.2334,4.2344,4.2385,4.243,4.2464,4.25,4.2536,4.2557,4.2584,4.2617,4.2665,4.2695,4.2755,4.2802,4.2849,4.2872,4.2876,4.2878,4.2888,4.2883,4.2874,4.288,4.2789,4.2875,4.2875,4.2875,4.2874,4.2874,4.2377,4.241,4.2449,4.2494,4.2524,4.2558,4.2591,4.2616,4.2657,4.2707,4.2717,4.2769,4.2807,4.2871,4.2896,4.2936,4.2929,4.2943,4.2947,4.295,4.2952,4.2868,4.2945,4.2945,4.2945,4.2945,4.2945,0,4.2443,4.2469,4.2511,4.2561,4.2597,4.2598,4.2639,4.2668,4.2713,4.2749,4.2788,4.2844,4.289,4.2922,4.2969,4.2995,4.2998,4.3007,4.3005,4.3011,4.2955,4.2942,4.3004,4.3004,4.3004,4.3004,4.3004,4.3004,4.2482,4.2537,4.2552,4.2622,4.2648,4.2699,4.2722,4.2753,4.2782,4.2844,4.2883,4.2904,4.2939,4.2988,4.3031,4.3039,4.3056,4.3065,4.3073,4.3021,4.3014,4.3008,4.2996,4.3068,4.3068,4.3125,4.3126,4.3126]},{"header":{"parameterUnit":"m.s-1","parameterCategory":1,"la1":30.2991,"la2":30.254,"lo1":-89.0895,"lo2":-89.0444,"dy":0.0017,"dx":0.0017,"nx":28,"ny":28,"refTime":"2024-04-03T21:00:00:Z","depth":0,"parameterNumber":3,"parameterNumberName":"V-component_of_WINDS"},"data":[0,0,0,0,0,0,0,0,0,0,0,0,0,0,0,0,0,0,0,0,0,0,0,0,0,0,0,0,0,0,0,0,0,0,0,0,0,0,0,0,0,0,0,0,0,0,0,0,0,0,0,0,0,0,0,0,0,0,-2.9197,-2.9198,0,-2.9262,-2.9263,-2.9264,-2.9256,-2.9255,-2.9254,-2.9253,-2.9318,-2.9321,-2.9324,0,0,0,0,0,0,0,0,0,0,0,0,0,-2.9067,-2.9069,-2.9197,-2.9198,-2.9199,-2.9262,-2.9263,-2.9264,-2.9256,-2.9255,-2.9253,-2.9252,-2.9317,-2.9321,-2.9324,0,0,0,0,0,0,0,0,0,0,0,0,0,-2.9127,-2.907,-2.9197,-2.9202,-2.9204,-2.9262,-2.9263,-2.9264,-2.9256,-2.9255,-2.9253,-2.9252,-2.9316,-2.932,-2.9324,-2.9381,0,0,-2.9337,-2.9339,0,0,0,0,0,0,0,0,-2.9123,-2.9132,-2.9201,-2.9202,-2.9204,-2.9249,-2.9241,-2.9303,-2.9257,-2.9236,-2.9253,-2.9251,-2.9297,-2.9302,-2.9318,-2.9384,-2.9387,-2.9337,-2.934,-2.9341,-2.9342,0,0,0,0,0,0,0,-2.9119,-2.9129,-2.9223,-2.9202,-2.9204,-2.9202,-2.9209,-2.9253,-2.9274,-2.9238,-2.9237,-2.9245,-2.9297,-2.9314,-2.9319,-2.9388,-2.9337,-2.9341,-2.9343,-2.9345,-2.9506,-2.9508,0,0,0,0,0,0,-2.9114,-2.9125,-2.9221,-2.9225,-2.9159,-2.9206,-2.9213,-2.9236,-2.9274,-2.9278,-2.9247,-2.9245,-2.9308,-2.9314,-2.9321,-2.9392,-2.9341,-2.9345,-2.9347,-2.9504,-2.9507,-2.9509,0,0,0,0,0,0,-2.9111,-2.9122,-2.9218,-2.9175,-2.9187,-2.9209,-2.9235,-2.9238,-2.9255,-2.928,-2.9284,-2.926,-2.9307,-2.9316,-2.9367,-2.9394,-2.9347,-2.9351,-2.9502,-2.9505,-2.9508,-2.9532,0,0,0,0,0,0,-2.9107,-2.9121,-2.9143,-2.9176,-2.9189,-2.9262,-2.9237,-2.9241,-2.9262,-2.926,-2.9294,-2.9298,-2.9306,-2.9361,-2.9371,-2.9399,-2.9354,-2.95,-2.9503,-2.9507,-2.9529,-2.9535,-2.9541,0,0,0,0,0,-2.9103,-2.9146,-2.9144,-2.9155,-2.9217,-2.9264,-2.9272,-2.928,-2.9264,-2.9287,-2.9303,-2.9297,-2.9389,-2.9366,-2.9377,-2.9407,-2.9498,-2.9502,-2.9506,-2.9526,-2.9534,-2.9541,0,0,0,0,0,0,-2.9115,-2.9151,-2.9148,-2.9204,-2.9231,-2.9262,-2.929,-2.9288,-2.932,-2.9317,-2.9326,-2.9334,-2.9386,-2.9401,-2.9375,-2.9465,-2.9442,-2.9448,-2.9453,-2.9461,-2.9466,-2.9462,-2.9357,0,0,0,0,0,-2.9124,-2.916,-2.9189,-2.9235,-2.9249,-2.9267,-2.9288,-2.9293,-2.9321,-2.9332,-2.9353,-2.938,-2.9416,-2.9439,-2.9473,-2.9531,-2.9539,-2.9557,-2.9563,-2.9568,-2.9574,-2.9608,-2.9617,-2.9522,-2.9522,-2.9522,0,0,-2.9144,-2.9168,-2.9189,-2.9238,-2.926,-2.9297,-2.9277,-2.9316,-2.9344,-2.9338,-2.9388,-2.9404,-2.9436,-2.9492,-2.9517,-2.9506,-2.9602,-2.9573,-2.9577,-2.958,-2.9613,-2.9622,-2.963,-2.9525,-2.9525,-2.9524,0,0,-2.9198,-2.9219,-2.9261,-2.9284,-2.9317,-2.9329,-2.934,-2.9372,-2.9383,-2.9433,-2.9431,-2.9464,-2.9524,-2.9548,-2.9567,-2.9633,-2.9629,-2.9644,-2.9675,-2.9709,-2.9716,-2.9723,-2.9748,-2.9757,-2.965,-2.965,-2.965,0,-2.9218,-2.9273,-2.9283,-2.9323,-2.9346,-2.9343,-2.9387,-2.9408,-2.945,-2.9466,-2.9453,-2.9531,-2.9552,-2.9614,-2.9631,-2.9646,-2.9659,-2.964,-2.9714,-2.9721,-2.9727,-2.9752,-2.9761,-2.9651,-2.9651,-2.9651,-2.9651,0,-2.9297,-2.9336,-2.9366,-2.9408,-2.9434,-2.9475,-2.9492,-2.9517,-2.952,-2.9534,-2.9586,-2.9612,-2.9652,-2.9667,-2.9669,-2.973,-2.9723,-2.9712,-2.9689,-2.9738,-2.9761,-2.977,-2.9654,-2.9653,-2.9653,-2.9652,0,0,-2.936,-2.9409,-2.942,-2.944,-2.9478,-2.9508,-2.955,-2.959,-2.9612,-2.9642,-2.9679,-2.9731,-2.9722,-2.9745,-2.975,-2.978,-2.9833,-2.9766,-2.9767,-2.9779,-2.9904,-2.9912,-2.9923,-2.983,-2.9832,-2.9834,-2.9901,0,-2.9419,-2.9494,-2.9505,-2.9571,-2.9608,-2.9608,-2.9645,-2.9672,-2.9687,-2.9721,-2.9737,-2.9775,-2.9759,-2.9773,-2.9802,-2.982,-2.9858,-2.9815,-2.9865,-2.9867,-2.9858,-2.9934,-2.9943,-3.0006,-2.991,-2.9912,-2.9913,0,-2.9498,-2.9532,-2.9602,-2.9637,-2.9653,-2.9686,-2.9725,-2.9757,-2.9789,-2.9798,-2.9824,-2.9827,-2.9872,-2.9847,-2.9909,-2.988,-2.9901,-2.9913,-2.9916,-2.9922,-2.9893,-2.9943,-3.0026,-3.0036,-2.9927,-2.9926,-2.9925,0,-2.9539,-2.9602,-2.9653,-2.967,-2.9711,-2.9735,-2.9753,-2.9784,-2.9808,-2.9842,-2.9858,-2.9896,-2.9918,-2.9948,-2.9961,-2.9942,-3.0024,-2.9999,-3.0033,-3.0033,-3.0051,-3.005,-3.0139,-3.0063,-3.0063,-3.0063,-3.0062,0,-2.9605,-2.9648,-2.9672,-2.9703,-2.9753,-2.9765,-2.9814,-2.9831,-2.9859,-2.9894,-2.9896,-2.9929,-2.9944,-2.998,-2.9991,-3.0042,-3.0051,-3.006,-3.0063,-3.0061,-3.006,-3.0075,-3.0072,-3.0065,-3.0064,-3.0064,-3.0064,0,-2.9659,-2.9676,-2.9732,-2.9768,-2.9778,-2.9813,-2.9843,-2.9874,-2.9889,-2.9934,-2.9946,-2.9969,-3.0012,-3.0028,-3.008,-3.0087,-3.0147,-3.0145,-3.0137,-3.0138,-3.0171,-3.0169,-3.0275,-3.029,-3.0202,-3.0203,-3.0204,0,-2.97,-2.9734,-2.9773,-2.9798,-2.9817,-2.9856,-2.9881,-2.9895,-2.9921,-2.9962,-2.9988,-3.0031,-3.0066,-3.0134,-3.0156,-3.0196,-3.0197,-3.0231,-3.0202,-3.02,-3.0199,-3.0197,-3.0202,-3.0236,-3.0237,-3.0238,-3.0239,0,-2.9772,-2.9779,-2.9816,-2.9856,-2.9887,-2.9919,-2.995,-2.997,-2.9989,-3.0018,-3.0063,-3.009,-3.0144,-3.0187,-3.0228,-3.0248,-3.0247,-3.0248,-3.0258,-3.0257,-3.0251,-3.0256,-3.0153,-3.0245,-3.0244,-3.0244,-3.0244,-3.0243,-2.9822,-2.9853,-2.9886,-2.9927,-2.9953,-2.9983,-3.0014,-3.0034,-3.0071,-3.0117,-3.0123,-3.017,-3.0204,-3.026,-3.0281,-3.0319,-3.031,-3.0324,-3.0328,-3.0332,-3.0335,-3.0244,-3.0327,-3.0326,-3.0326,-3.0326,-3.0326,0,-2.9895,-2.9917,-2.9955,-3.0,-3.0033,-3.003,-3.0065,-3.0093,-3.0135,-3.0166,-3.0201,-3.0253,-3.0295,-3.0321,-3.0364,-3.039,-3.0391,-3.0401,-3.0399,-3.0404,-3.034,-3.0328,-3.0399,-3.0399,-3.0399,-3.0399,-3.0399,-3.0399,-2.9937,-2.999,-3.0002,-3.0068,-3.009,-3.0137,-3.0158,-3.0186,-3.0211,-3.0269,-3.0305,-3.0322,-3.0352,-3.0397,-3.0436,-3.0443,-3.0459,-3.047,-3.0476,-3.0416,-3.0408,-3.0401,-3.039,-3.0473,-3.0473,-3.0538,-3.0538,-3.0539]}]]